Entrance, British Columbia

4:47 PM PDT on August 23, 2017 (GMT -0700)
Entrance

Weather History for CWEL - October, 2013

Change the Weather History Date:

Wednesday, October 16, 2013

  Actual Average Record
Temperature  
Mean Temperature 52 °F -  
Max Temperature 53 °F - - ()
Min Temperature 50 °F - - ()
Degree Days  
Heating Degree Days 14    
Growing Degree Days 2 (Base 50)    
Moisture  
Dew Point 48 °F    
Average Humidity 84    
Maximum Humidity 90    
Minimum Humidity 76    
Precipitation  
Precipitation 0.00 in - - ()
Sea Level Pressure  
Sea Level Pressure 30.19 in    
Wind  
Wind Speed 11 mph ()    
Max Wind Speed 22 mph    
Max Gust Speed -    
T = Trace of Precipitation, MM = Missing Value Source: Averaged Metar Reports

Daily Weather History Graph

Daily Weather History Graph

Search for Another Location

Airport or City:

Trip Planner

Search our weather history database for the weather conditions in past years. The results will help you decide how hot, cold, wet, or windy it might be!

Date:

Astronomy

Oct. 16, 2013 Rise Set
Actual Time 7:38 AM PDT 6:22 PM PDT
Civil Twilight 7:06 AM PDT 6:54 PM PDT
Nautical Twilight 6:29 AM PDT 7:31 PM PDT
Astronomical Twilight 5:52 AM PDT 8:08 PM PDT
Moon 5:13 PM PDT (10/16) 5:01 AM PDT (10/16)
Length of Visible Light 11h 48m
Length of Day
10h 44m
Waxing Gibbous, 94% of the Moon is Illuminated
Oct 16
Waxing Gibbous
Oct 18
Full
Oct 26
Last Quarter
Nov 3
New
Nov 9
First Quarter

Hourly Weather History & Observations

Time (PDT) Temp. Dew Point Humidity Pressure Visibility Wind Dir Wind Speed Gust Speed Precip Events Conditions
12:00 AM 52.3 °F 48.6 °F 87% 30.19 in - NNW 5.8 mph - N/A   Unknown
1:00 AM 50.7 °F 47.8 °F 90% 30.19 in - West 5.8 mph - N/A   Unknown
2:00 AM 51.6 °F 48.2 °F 88% 30.20 in - NW 10.4 mph - N/A   Unknown
3:00 AM 50.7 °F 47.5 °F 89% 30.19 in - WNW 9.2 mph - N/A   Unknown
4:00 AM 52.0 °F 47.7 °F 85% 30.19 in - NW 12.7 mph - N/A   Unknown
5:00 AM 52 °F 48 °F 82% 30.18 in - NW 16.1 mph - -  
5:00 AM 52.0 °F 48.2 °F 87% 30.18 in - NW 16.1 mph - N/A   Unknown
6:00 AM 52.0 °F 47.7 °F 85% 30.18 in - NW 17.3 mph - N/A   Unknown
7:00 AM 51.8 °F 47.5 °F 85% 30.19 in - NW 13.8 mph - N/A   Unknown
8:00 AM 51.6 °F 47.1 °F 85% 30.20 in - NW 16.1 mph - N/A   Unknown
9:00 AM 52.0 °F 46.6 °F 82% 30.21 in - NW 17.3 mph - N/A   Unknown
10:00 AM 52.2 °F 46.4 °F 81% 30.22 in - NW 17.3 mph - N/A   Unknown
11:00 AM 52 °F 47 °F 76% 30.21 in - NW 17.3 mph - -  
11:00 AM 52.0 °F 46.6 °F 82% 30.21 in - NW 17.3 mph - N/A   Unknown
12:00 PM 51.4 °F 46.2 °F 82% 30.22 in - NNW 18.4 mph - N/A   Unknown
1:00 PM 51.6 °F 46.2 °F 82% 30.20 in - NW 19.6 mph - N/A   Unknown
2:00 PM 51.4 °F 46.8 °F 84% 30.20 in - NNW 21.9 mph - N/A   Unknown
3:00 PM 51.6 °F 47.5 °F 86% 30.19 in - NNW 19.6 mph - N/A   Unknown
4:00 PM 52.3 °F 47.8 °F 85% 30.18 in - NW 13.8 mph - N/A   Unknown
5:00 PM 53 °F 48 °F 76% 30.17 in - NNW 15.0 mph - -  
5:00 PM 52.9 °F 47.7 °F 82% 30.17 in - NNW 15.0 mph - N/A   Unknown
6:00 PM 52.5 °F 47.7 °F 84% 30.16 in - NW 12.7 mph - N/A   Unknown
7:00 PM 52.9 °F 47.3 °F 81% 30.16 in - NW 13.8 mph - N/A   Unknown
8:00 PM 53.2 °F 47.8 °F 82% 30.17 in - WNW 11.5 mph - N/A   Unknown
9:00 PM 53.2 °F 48.4 °F 84% 30.18 in - NW 8.1 mph - N/A   Unknown
10:00 PM 52.7 °F 48.6 °F 86% 30.18 in - NW 9.2 mph - N/A   Unknown
11:00 PM 53 °F 49 °F 81% 30.19 in - NNW 11.5 mph - -  
11:00 PM 52.7 °F 48.9 °F 87% 30.19 in - NNW 11.5 mph - N/A   Unknown